owner,sensor,date,latitude,longitude,sea_surface_height_above_sea_level,qcFlag 
TCOON,ioos:station:TCOON:003:1,2019-05-01T00:24:00Z,26.8015,-97.4706,1.562,11111222 
TCOON,ioos:station:TCOON:003:1,2019-05-01T01:24:00Z,26.8015,-97.4706,1.575,11111222 
TCOON,ioos:station:TCOON:003:1,2019-05-01T02:24:00Z,26.8015,-97.4706,1.568,11111222 
TCOON,ioos:station:TCOON:003:1,2019-05-01T03:24:00Z,26.8015,-97.4706,1.56,11111222 
TCOON,ioos:station:TCOON:003:1,2019-05-01T04:24:00Z,26.8015,-97.4706,1.564,11111222 
TCOON,ioos:station:TCOON:003:1,2019-05-01T05:48:00Z,26.8015,-97.4706,1.566,11111222 
TCOON,ioos:station:TCOON:003:1,2019-05-01T06:24:00Z,26.8015,-97.4706,1.564,11111222 
TCOON,ioos:station:TCOON:003:1,2019-05-01T07:24:00Z,26.8015,-97.4706,1.552,11111222 
TCOON,ioos:station:TCOON:003:1,2019-05-01T08:24:00Z,26.8015,-97.4706,1.556,11111222 
TCOON,ioos:station:TCOON:003:1,2019-05-01T09:24:00Z,26.8015,-97.4706,1.54,11111222 
TCOON,ioos:station:TCOON:003:1,2019-05-01T10:24:00Z,26.8015,-97.4706,1.535,11111222 
TCOON,ioos:station:TCOON:003:1,2019-05-01T11:24:00Z,26.8015,-97.4706,1.531,11111222 
TCOON,ioos:station:TCOON:003:1,2019-05-01T12:24:00Z,26.8015,-97.4706,1.533,11111222 
TCOON,ioos:station:TCOON:003:1,2019-05-01T13:24:00Z,26.8015,-97.4706,1.534,11111222 
TCOON,ioos:station:TCOON:003:1,2019-05-01T14:24:00Z,26.8015,-97.4706,1.535,11111222 
TCOON,ioos:station:TCOON:003:1,2019-05-01T15:24:00Z,26.8015,-97.4706,1.539,11111222 
TCOON,ioos:station:TCOON:003:1,2019-05-01T16:24:00Z,26.8015,-97.4706,1.551,11111222 
TCOON,ioos:station:TCOON:003:1,2019-05-01T17:24:00Z,26.8015,-97.4706,1.558,11111222 
TCOON,ioos:station:TCOON:003:1,2019-05-01T18:24:00Z,26.8015,-97.4706,1.558,11111222 
TCOON,ioos:station:TCOON:003:1,2019-05-01T19:24:00Z,26.8015,-97.4706,1.558,11111222 
TCOON,ioos:station:TCOON:003:1,2019-05-01T20:24:00Z,26.8015,-97.4706,1.561,11111222 
TCOON,ioos:station:TCOON:003:1,2019-05-01T21:24:00Z,26.8015,-97.4706,1.573,11111222 
TCOON,ioos:station:TCOON:003:1,2019-05-01T22:24:00Z,26.8015,-97.4706,1.585,11111222 
TCOON,ioos:station:TCOON:003:1,2019-05-01T23:24:00Z,26.8015,-97.4706,1.597,11111222 
TCOON,ioos:station:TCOON:003:1,2019-05-02T00:24:00Z,26.8015,-97.4706,1.6,11111222 
TCOON,ioos:station:TCOON:003:1,2019-05-02T01:24:00Z,26.8015,-97.4706,1.599,11111222 
TCOON,ioos:station:TCOON:003:1,2019-05-02T02:24:00Z,26.8015,-97.4706,1.602,11111222 
TCOON,ioos:station:TCOON:003:1,2019-05-02T03:24:00Z,26.8015,-97.4706,1.652,11111222 
TCOON,ioos:station:TCOON:003:1,2019-05-02T04:24:00Z,26.8015,-97.4706,1.812,11111222 
TCOON,ioos:station:TCOON:003:1,2019-05-02T05:24:00Z,26.8015,-97.4706,1.818,11111222 
TCOON,ioos:station:TCOON:003:1,2019-05-02T06:24:00Z,26.8015,-97.4706,1.841,11111222 
TCOON,ioos:station:TCOON:003:1,2019-05-02T07:24:00Z,26.8015,-97.4706,1.799,11111222 
TCOON,ioos:station:TCOON:003:1,2019-05-02T08:24:00Z,26.8015,-97.4706,1.752,11111222 
TCOON,ioos:station:TCOON:003:1,2019-05-02T09:24:00Z,26.8015,-97.4706,1.762,11111222 
TCOON,ioos:station:TCOON:003:1,2019-05-02T10:24:00Z,26.8015,-97.4706,1.723,11111222 
TCOON,ioos:station:TCOON:003:1,2019-05-02T11:24:00Z,26.8015,-97.4706,1.683,11111222 
TCOON,ioos:station:TCOON:003:1,2019-05-02T12:24:00Z,26.8015,-97.4706,1.637,11111222 
TCOON,ioos:station:TCOON:003:1,2019-05-02T13:24:00Z,26.8015,-97.4706,1.593,11111222 
TCOON,ioos:station:TCOON:003:1,2019-05-02T14:30:00Z,26.8015,-97.4706,1.577,11111222 
TCOON,ioos:station:TCOON:003:1,2019-05-02T15:24:00Z,26.8015,-97.4706,1.576,11111222 
TCOON,ioos:station:TCOON:003:1,2019-05-02T16:24:00Z,26.8015,-97.4706,1.579,11111222 
TCOON,ioos:station:TCOON:003:1,2019-05-02T17:30:00Z,26.8015,-97.4706,1.583,11111222 
TCOON,ioos:station:TCOON:003:1,2019-05-02T18:24:00Z,26.8015,-97.4706,1.571,11111222 
TCOON,ioos:station:TCOON:003:1,2019-05-02T19:24:00Z,26.8015,-97.4706,1.564,11111222 
TCOON,ioos:station:TCOON:003:1,2019-05-02T20:30:00Z,26.8015,-97.4706,1.573,11111222 
TCOON,ioos:station:TCOON:003:1,2019-05-02T21:24:00Z,26.8015,-97.4706,1.578,11111222 
TCOON,ioos:station:TCOON:003:1,2019-05-02T22:24:00Z,26.8015,-97.4706,1.583,11111222 
TCOON,ioos:station:TCOON:003:1,2019-05-02T23:24:00Z,26.8015,-97.4706,1.588,11111222 
TCOON,ioos:station:TCOON:003:1,2019-05-03T00:24:00Z,26.8015,-97.4706,1.584,11111222 
TCOON,ioos:station:TCOON:003:1,2019-05-03T01:24:00Z,26.8015,-97.4706,1.576,11111222 
TCOON,ioos:station:TCOON:003:1,2019-05-03T02:24:00Z,26.8015,-97.4706,1.568,11111222 
TCOON,ioos:station:TCOON:003:1,2019-05-03T03:24:00Z,26.8015,-97.4706,1.559,11111222 
TCOON,ioos:station:TCOON:003:1,2019-05-03T04:24:00Z,26.8015,-97.4706,1.539,11111222 
TCOON,ioos:station:TCOON:003:1,2019-05-03T05:24:00Z,26.8015,-97.4706,1.511,11111222 
TCOON,ioos:station:TCOON:003:1,2019-05-03T06:24:00Z,26.8015,-97.4706,1.492,11111222 
TCOON,ioos:station:TCOON:003:1,2019-05-03T07:24:00Z,26.8015,-97.4706,1.506,11111222 
TCOON,ioos:station:TCOON:003:1,2019-05-03T08:24:00Z,26.8015,-97.4706,1.509,11111222 
TCOON,ioos:station:TCOON:003:1,2019-05-03T09:24:00Z,26.8015,-97.4706,1.525,11111222 
TCOON,ioos:station:TCOON:003:1,2019-05-03T10:24:00Z,26.8015,-97.4706,1.532,11111222 
TCOON,ioos:station:TCOON:003:1,2019-05-03T11:24:00Z,26.8015,-97.4706,1.542,11111222 
TCOON,ioos:station:TCOON:003:1,2019-05-03T12:24:00Z,26.8015,-97.4706,1.554,11111222 
TCOON,ioos:station:TCOON:003:1,2019-05-03T13:30:00Z,26.8015,-97.4706,1.543,11111222 
TCOON,ioos:station:TCOON:003:1,2019-05-03T14:24:00Z,26.8015,-97.4706,1.502,11111222 
TCOON,ioos:station:TCOON:003:1,2019-05-03T15:24:00Z,26.8015,-97.4706,1.473,11111222 
TCOON,ioos:station:TCOON:003:1,2019-05-03T16:24:00Z,26.8015,-97.4706,1.462,11111222 
TCOON,ioos:station:TCOON:003:1,2019-05-03T17:30:00Z,26.8015,-97.4706,1.484,11111222 
TCOON,ioos:station:TCOON:003:1,2019-05-03T18:30:00Z,26.8015,-97.4706,1.502,11111222 
TCOON,ioos:station:TCOON:003:1,2019-05-03T19:24:00Z,26.8015,-97.4706,1.512,11111222 
TCOON,ioos:station:TCOON:003:1,2019-05-03T20:24:00Z,26.8015,-97.4706,1.518,11111222 
TCOON,ioos:station:TCOON:003:1,2019-05-03T21:30:00Z,26.8015,-97.4706,1.529,11111222 
TCOON,ioos:station:TCOON:003:1,2019-05-03T22:30:00Z,26.8015,-97.4706,1.535,11111222 
TCOON,ioos:station:TCOON:003:1,2019-05-03T23:24:00Z,26.8015,-97.4706,1.535,11111222 
TCOON,ioos:station:TCOON:003:1,2019-05-04T00:24:00Z,26.8015,-97.4706,1.53,11111222 
TCOON,ioos:station:TCOON:003:1,2019-05-04T01:24:00Z,26.8015,-97.4706,1.522,11111222 
TCOON,ioos:station:TCOON:003:1,2019-05-04T02:24:00Z,26.8015,-97.4706,1.525,11111222 
TCOON,ioos:station:TCOON:003:1,2019-05-04T03:30:00Z,26.8015,-97.4706,1.507,11111222 
TCOON,ioos:station:TCOON:003:1,2019-05-04T04:24:00Z,26.8015,-97.4706,1.474,11111222 
TCOON,ioos:station:TCOON:003:1,2019-05-04T05:24:00Z,26.8015,-97.4706,1.438,11111222 
TCOON,ioos:station:TCOON:003:1,2019-05-04T06:24:00Z,26.8015,-97.4706,1.417,11111222 
TCOON,ioos:station:TCOON:003:1,2019-05-04T07:24:00Z,26.8015,-97.4706,1.362,11111222 
TCOON,ioos:station:TCOON:003:1,2019-05-04T08:24:00Z,26.8015,-97.4706,1.359,11111222 
TCOON,ioos:station:TCOON:003:1,2019-05-04T09:24:00Z,26.8015,-97.4706,1.368,11111222 
TCOON,ioos:station:TCOON:003:1,2019-05-04T10:24:00Z,26.8015,-97.4706,1.402,11111222 
TCOON,ioos:station:TCOON:003:1,2019-05-04T11:24:00Z,26.8015,-97.4706,1.409,11111222 
TCOON,ioos:station:TCOON:003:1,2019-05-04T12:24:00Z,26.8015,-97.4706,1.404,11111222 
TCOON,ioos:station:TCOON:003:1,2019-05-04T13:24:00Z,26.8015,-97.4706,1.405,11111222 
TCOON,ioos:station:TCOON:003:1,2019-05-04T14:24:00Z,26.8015,-97.4706,1.421,11111222 
TCOON,ioos:station:TCOON:003:1,2019-05-04T15:24:00Z,26.8015,-97.4706,1.432,11111222 
TCOON,ioos:station:TCOON:003:1,2019-05-04T16:24:00Z,26.8015,-97.4706,1.442,11111222 
TCOON,ioos:station:TCOON:003:1,2019-05-04T17:24:00Z,26.8015,-97.4706,1.431,11111222 
TCOON,ioos:station:TCOON:003:1,2019-05-04T18:24:00Z,26.8015,-97.4706,1.422,11111222 
TCOON,ioos:station:TCOON:003:1,2019-05-04T19:24:00Z,26.8015,-97.4706,1.398,11111222 
TCOON,ioos:station:TCOON:003:1,2019-05-04T20:24:00Z,26.8015,-97.4706,1.381,11111222 
TCOON,ioos:station:TCOON:003:1,2019-05-04T21:24:00Z,26.8015,-97.4706,1.372,11111222 
TCOON,ioos:station:TCOON:003:1,2019-05-04T22:24:00Z,26.8015,-97.4706,1.373,11111222 
TCOON,ioos:station:TCOON:003:1,2019-05-04T23:24:00Z,26.8015,-97.4706,1.379,11111222 
TCOON,ioos:station:TCOON:003:1,2019-05-05T00:24:00Z,26.8015,-97.4706,1.376,11111222 
TCOON,ioos:station:TCOON:003:1,2019-05-05T01:24:00Z,26.8015,-97.4706,1.371,11111222 
TCOON,ioos:station:TCOON:003:1,2019-05-05T02:24:00Z,26.8015,-97.4706,1.369,11111222 
TCOON,ioos:station:TCOON:003:1,2019-05-05T03:24:00Z,26.8015,-97.4706,1.38,11111222 
TCOON,ioos:station:TCOON:003:1,2019-05-05T04:24:00Z,26.8015,-97.4706,1.392,11111222 
TCOON,ioos:station:TCOON:003:1,2019-05-05T05:24:00Z,26.8015,-97.4706,1.385,11111222 
TCOON,ioos:station:TCOON:003:1,2019-05-05T06:24:00Z,26.8015,-97.4706,1.371,11111222 
TCOON,ioos:station:TCOON:003:1,2019-05-05T07:24:00Z,26.8015,-97.4706,1.357,11111222 
TCOON,ioos:station:TCOON:003:1,2019-05-05T08:24:00Z,26.8015,-97.4706,1.348,11111222 
TCOON,ioos:station:TCOON:003:1,2019-05-05T09:30:00Z,26.8015,-97.4706,1.359,11111222 
TCOON,ioos:station:TCOON:003:1,2019-05-05T10:30:00Z,26.8015,-97.4706,1.365,11111222 
TCOON,ioos:station:TCOON:003:1,2019-05-05T11:24:00Z,26.8015,-97.4706,1.356,11111222 
TCOON,ioos:station:TCOON:003:1,2019-05-05T12:30:00Z,26.8015,-97.4706,1.346,11111222 
TCOON,ioos:station:TCOON:003:1,2019-05-05T13:30:00Z,26.8015,-97.4706,1.349,11111222 
TCOON,ioos:station:TCOON:003:1,2019-05-05T14:30:00Z,26.8015,-97.4706,1.355,11111222 
TCOON,ioos:station:TCOON:003:1,2019-05-05T15:30:00Z,26.8015,-97.4706,1.37,11111222 
TCOON,ioos:station:TCOON:003:1,2019-05-05T16:30:00Z,26.8015,-97.4706,1.387,11111222 
TCOON,ioos:station:TCOON:003:1,2019-05-05T17:30:00Z,26.8015,-97.4706,1.401,11111222 
TCOON,ioos:station:TCOON:003:1,2019-05-05T18:30:00Z,26.8015,-97.4706,1.386,11111222 
TCOON,ioos:station:TCOON:003:1,2019-05-05T19:24:00Z,26.8015,-97.4706,1.38,11111222 
TCOON,ioos:station:TCOON:003:1,2019-05-05T20:24:00Z,26.8015,-97.4706,1.384,11111222 
TCOON,ioos:station:TCOON:003:1,2019-05-05T21:24:00Z,26.8015,-97.4706,1.394,11111222 
TCOON,ioos:station:TCOON:003:1,2019-05-05T22:24:00Z,26.8015,-97.4706,1.39,11111222 
TCOON,ioos:station:TCOON:003:1,2019-05-05T23:24:00Z,26.8015,-97.4706,1.397,11111222 
TCOON,ioos:station:TCOON:003:1,2019-05-06T00:24:00Z,26.8015,-97.4706,1.423,11111222 
TCOON,ioos:station:TCOON:003:1,2019-05-06T01:24:00Z,26.8015,-97.4706,1.439,11111222 
TCOON,ioos:station:TCOON:003:1,2019-05-06T02:24:00Z,26.8015,-97.4706,1.447,11111222 
TCOON,ioos:station:TCOON:003:1,2019-05-06T03:24:00Z,26.8015,-97.4706,1.46,11111222 
TCOON,ioos:station:TCOON:003:1,2019-05-06T04:24:00Z,26.8015,-97.4706,1.452,11111222 
TCOON,ioos:station:TCOON:003:1,2019-05-06T05:24:00Z,26.8015,-97.4706,1.436,11111222 
TCOON,ioos:station:TCOON:003:1,2019-05-06T06:24:00Z,26.8015,-97.4706,1.416,11111222 
TCOON,ioos:station:TCOON:003:1,2019-05-06T07:24:00Z,26.8015,-97.4706,1.403,11111222 
TCOON,ioos:station:TCOON:003:1,2019-05-06T08:24:00Z,26.8015,-97.4706,1.404,11111222 
TCOON,ioos:station:TCOON:003:1,2019-05-06T09:24:00Z,26.8015,-97.4706,1.4,11111222 
TCOON,ioos:station:TCOON:003:1,2019-05-06T10:24:00Z,26.8015,-97.4706,1.397,11111222 
TCOON,ioos:station:TCOON:003:1,2019-05-06T11:24:00Z,26.8015,-97.4706,1.386,11111222 
TCOON,ioos:station:TCOON:003:1,2019-05-06T12:24:00Z,26.8015,-97.4706,1.377,11111222 
TCOON,ioos:station:TCOON:003:1,2019-05-06T13:24:00Z,26.8015,-97.4706,1.377,11111222 
TCOON,ioos:station:TCOON:003:1,2019-05-06T14:24:00Z,26.8015,-97.4706,1.386,11111222 
TCOON,ioos:station:TCOON:003:1,2019-05-06T15:24:00Z,26.8015,-97.4706,1.407,11111222 
TCOON,ioos:station:TCOON:003:1,2019-05-06T16:24:00Z,26.8015,-97.4706,1.42,11111222 
TCOON,ioos:station:TCOON:003:1,2019-05-06T17:24:00Z,26.8015,-97.4706,1.421,11111222 
TCOON,ioos:station:TCOON:003:1,2019-05-06T18:24:00Z,26.8015,-97.4706,1.403,11111222 
TCOON,ioos:station:TCOON:003:1,2019-05-06T19:24:00Z,26.8015,-97.4706,1.335,11111222 
TCOON,ioos:station:TCOON:003:1,2019-05-06T20:24:00Z,26.8015,-97.4706,1.345,11111222 
TCOON,ioos:station:TCOON:003:1,2019-05-06T21:24:00Z,26.8015,-97.4706,1.381,11111222 
TCOON,ioos:station:TCOON:003:1,2019-05-06T22:24:00Z,26.8015,-97.4706,1.427,11111222 
TCOON,ioos:station:TCOON:003:1,2019-05-06T23:24:00Z,26.8015,-97.4706,1.443,11111222 
TCOON,ioos:station:TCOON:003:1,2019-05-07T00:24:00Z,26.8015,-97.4706,1.445,11111222 
TCOON,ioos:station:TCOON:003:1,2019-05-07T01:24:00Z,26.8015,-97.4706,1.435,11111222 
TCOON,ioos:station:TCOON:003:1,2019-05-07T02:24:00Z,26.8015,-97.4706,1.411,11111222 
TCOON,ioos:station:TCOON:003:1,2019-05-07T03:24:00Z,26.8015,-97.4706,1.393,11111222 
TCOON,ioos:station:TCOON:003:1,2019-05-07T04:24:00Z,26.8015,-97.4706,1.391,11111222 
TCOON,ioos:station:TCOON:003:1,2019-05-07T05:24:00Z,26.8015,-97.4706,1.399,11111222 
TCOON,ioos:station:TCOON:003:1,2019-05-07T06:24:00Z,26.8015,-97.4706,1.405,11111222 
TCOON,ioos:station:TCOON:003:1,2019-05-07T07:24:00Z,26.8015,-97.4706,1.401,11111222 
TCOON,ioos:station:TCOON:003:1,2019-05-07T08:24:00Z,26.8015,-97.4706,1.381,11111222 
TCOON,ioos:station:TCOON:003:1,2019-05-07T09:24:00Z,26.8015,-97.4706,1.373,11111222 
TCOON,ioos:station:TCOON:003:1,2019-05-07T10:24:00Z,26.8015,-97.4706,1.375,11111222 
TCOON,ioos:station:TCOON:003:1,2019-05-07T11:24:00Z,26.8015,-97.4706,1.39,11111222 
TCOON,ioos:station:TCOON:003:1,2019-05-07T12:24:00Z,26.8015,-97.4706,1.387,11111222 
TCOON,ioos:station:TCOON:003:1,2019-05-07T13:30:00Z,26.8015,-97.4706,1.395,11111222 
TCOON,ioos:station:TCOON:003:1,2019-05-07T14:30:00Z,26.8015,-97.4706,1.418,11111222 
TCOON,ioos:station:TCOON:003:1,2019-05-07T15:24:00Z,26.8015,-97.4706,1.423,11111222 
TCOON,ioos:station:TCOON:003:1,2019-05-07T16:24:00Z,26.8015,-97.4706,1.44,11111222 
TCOON,ioos:station:TCOON:003:1,2019-05-07T17:24:00Z,26.8015,-97.4706,1.448,11111222 
TCOON,ioos:station:TCOON:003:1,2019-05-07T18:30:00Z,26.8015,-97.4706,1.453,11111222 
TCOON,ioos:station:TCOON:003:1,2019-05-07T19:24:00Z,26.8015,-97.4706,1.452,11111222 
TCOON,ioos:station:TCOON:003:1,2019-05-07T20:24:00Z,26.8015,-97.4706,1.449,11111222 
TCOON,ioos:station:TCOON:003:1,2019-05-07T21:24:00Z,26.8015,-97.4706,1.466,11111222 
TCOON,ioos:station:TCOON:003:1,2019-05-07T22:24:00Z,26.8015,-97.4706,1.5,11111222 
TCOON,ioos:station:TCOON:003:1,2019-05-07T23:24:00Z,26.8015,-97.4706,1.523,11111222 
TCOON,ioos:station:TCOON:003:1,2019-05-08T00:24:00Z,26.8015,-97.4706,1.529,11111222 
TCOON,ioos:station:TCOON:003:1,2019-05-08T01:24:00Z,26.8015,-97.4706,1.531,11111222 
TCOON,ioos:station:TCOON:003:1,2019-05-08T02:24:00Z,26.8015,-97.4706,1.549,11111222 
TCOON,ioos:station:TCOON:003:1,2019-05-08T03:24:00Z,26.8015,-97.4706,1.561,11111222 
TCOON,ioos:station:TCOON:003:1,2019-05-08T04:24:00Z,26.8015,-97.4706,1.564,11111222 
TCOON,ioos:station:TCOON:003:1,2019-05-08T05:24:00Z,26.8015,-97.4706,1.582,11111222 
TCOON,ioos:station:TCOON:003:1,2019-05-08T06:24:00Z,26.8015,-97.4706,1.591,11111222 
TCOON,ioos:station:TCOON:003:1,2019-05-08T07:24:00Z,26.8015,-97.4706,1.602,11111222 
TCOON,ioos:station:TCOON:003:1,2019-05-08T08:24:00Z,26.8015,-97.4706,1.59,11111222 
TCOON,ioos:station:TCOON:003:1,2019-05-08T09:24:00Z,26.8015,-97.4706,1.582,11111222 
TCOON,ioos:station:TCOON:003:1,2019-05-08T10:24:00Z,26.8015,-97.4706,1.585,11111222 
TCOON,ioos:station:TCOON:003:1,2019-05-08T11:24:00Z,26.8015,-97.4706,1.603,11111222 
TCOON,ioos:station:TCOON:003:1,2019-05-08T12:24:00Z,26.8015,-97.4706,1.609,11111222 
TCOON,ioos:station:TCOON:003:1,2019-05-08T13:24:00Z,26.8015,-97.4706,1.608,11111222 
TCOON,ioos:station:TCOON:003:1,2019-05-08T14:24:00Z,26.8015,-97.4706,1.614,11111222 
TCOON,ioos:station:TCOON:003:1,2019-05-08T15:24:00Z,26.8015,-97.4706,1.62,11111222 
TCOON,ioos:station:TCOON:003:1,2019-05-08T16:18:00Z,26.8015,-97.4706,1.625,11111222 
TCOON,ioos:station:TCOON:003:1,2019-05-08T17:24:00Z,26.8015,-97.4706,1.637,11111222 
TCOON,ioos:station:TCOON:003:1,2019-05-08T18:24:00Z,26.8015,-97.4706,1.642,11111222 
TCOON,ioos:station:TCOON:003:1,2019-05-08T19:24:00Z,26.8015,-97.4706,1.643,11111222 
TCOON,ioos:station:TCOON:003:1,2019-05-08T20:24:00Z,26.8015,-97.4706,1.637,11111222 
TCOON,ioos:station:TCOON:003:1,2019-05-08T21:24:00Z,26.8015,-97.4706,1.621,11111222 
TCOON,ioos:station:TCOON:003:1,2019-05-08T22:24:00Z,26.8015,-97.4706,1.62,11111222 
TCOON,ioos:station:TCOON:003:1,2019-05-08T23:24:00Z,26.8015,-97.4706,1.639,11111222 
TCOON,ioos:station:TCOON:003:1,2019-05-09T00:24:00Z,26.8015,-97.4706,1.648,11111222 
TCOON,ioos:station:TCOON:003:1,2019-05-09T01:24:00Z,26.8015,-97.4706,1.646,11111222 
TCOON,ioos:station:TCOON:003:1,2019-05-09T02:24:00Z,26.8015,-97.4706,1.637,11111222 
TCOON,ioos:station:TCOON:003:1,2019-05-09T03:24:00Z,26.8015,-97.4706,1.639,11111222 
TCOON,ioos:station:TCOON:003:1,2019-05-09T04:24:00Z,26.8015,-97.4706,1.646,11111222 
TCOON,ioos:station:TCOON:003:1,2019-05-09T05:24:00Z,26.8015,-97.4706,1.648,11111222 
TCOON,ioos:station:TCOON:003:1,2019-05-09T06:24:00Z,26.8015,-97.4706,1.649,11111222 
TCOON,ioos:station:TCOON:003:1,2019-05-09T07:24:00Z,26.8015,-97.4706,1.646,11111222 
TCOON,ioos:station:TCOON:003:1,2019-05-09T08:24:00Z,26.8015,-97.4706,1.638,11111222 
TCOON,ioos:station:TCOON:003:1,2019-05-09T09:24:00Z,26.8015,-97.4706,1.615,11111222 
TCOON,ioos:station:TCOON:003:1,2019-05-09T10:24:00Z,26.8015,-97.4706,1.581,11111222 
TCOON,ioos:station:TCOON:003:1,2019-05-09T11:24:00Z,26.8015,-97.4706,1.559,11111222 
TCOON,ioos:station:TCOON:003:1,2019-05-09T12:24:00Z,26.8015,-97.4706,1.561,11111222 
TCOON,ioos:station:TCOON:003:1,2019-05-09T13:24:00Z,26.8015,-97.4706,1.554,11111222 
TCOON,ioos:station:TCOON:003:1,2019-05-09T14:24:00Z,26.8015,-97.4706,1.549,11111222 
TCOON,ioos:station:TCOON:003:1,2019-05-09T15:24:00Z,26.8015,-97.4706,1.563,11111222 
TCOON,ioos:station:TCOON:003:1,2019-05-09T16:24:00Z,26.8015,-97.4706,1.575,11111222 
TCOON,ioos:station:TCOON:003:1,2019-05-09T17:24:00Z,26.8015,-97.4706,1.576,11111222 
TCOON,ioos:station:TCOON:003:1,2019-05-09T18:24:00Z,26.8015,-97.4706,1.565,11111222 
TCOON,ioos:station:TCOON:003:1,2019-05-09T19:24:00Z,26.8015,-97.4706,1.559,11111222 
TCOON,ioos:station:TCOON:003:1,2019-05-09T20:24:00Z,26.8015,-97.4706,1.551,11111222 
TCOON,ioos:station:TCOON:003:1,2019-05-09T21:24:00Z,26.8015,-97.4706,1.539,11111222 
TCOON,ioos:station:TCOON:003:1,2019-05-09T22:24:00Z,26.8015,-97.4706,1.551,11111222 
TCOON,ioos:station:TCOON:003:1,2019-05-09T23:24:00Z,26.8015,-97.4706,1.549,11111222 
TCOON,ioos:station:TCOON:003:1,2019-05-10T00:24:00Z,26.8015,-97.4706,1.539,11111222 
TCOON,ioos:station:TCOON:003:1,2019-05-10T01:24:00Z,26.8015,-97.4706,1.529,11111222 
TCOON,ioos:station:TCOON:003:1,2019-05-10T02:24:00Z,26.8015,-97.4706,1.52,11111222 
TCOON,ioos:station:TCOON:003:1,2019-05-10T03:24:00Z,26.8015,-97.4706,1.518,11111222 
TCOON,ioos:station:TCOON:003:1,2019-05-10T04:24:00Z,26.8015,-97.4706,1.524,11111222 
TCOON,ioos:station:TCOON:003:1,2019-05-10T05:54:00Z,26.8015,-97.4706,1.523,11111222 
TCOON,ioos:station:TCOON:003:1,2019-05-10T06:24:00Z,26.8015,-97.4706,1.517,11111222 
TCOON,ioos:station:TCOON:003:1,2019-05-10T07:24:00Z,26.8015,-97.4706,1.521,11111222 
TCOON,ioos:station:TCOON:003:1,2019-05-10T08:24:00Z,26.8015,-97.4706,1.516,11111222 
TCOON,ioos:station:TCOON:003:1,2019-05-10T09:24:00Z,26.8015,-97.4706,1.512,11111222 
TCOON,ioos:station:TCOON:003:1,2019-05-10T10:24:00Z,26.8015,-97.4706,1.512,11111222 
TCOON,ioos:station:TCOON:003:1,2019-05-10T11:24:00Z,26.8015,-97.4706,1.514,11111222 
TCOON,ioos:station:TCOON:003:1,2019-05-10T12:24:00Z,26.8015,-97.4706,1.476,11111222 
TCOON,ioos:station:TCOON:003:1,2019-05-10T13:24:00Z,26.8015,-97.4706,1.475,11111222 
TCOON,ioos:station:TCOON:003:1,2019-05-10T14:24:00Z,26.8015,-97.4706,1.477,11111222 
TCOON,ioos:station:TCOON:003:1,2019-05-10T15:24:00Z,26.8015,-97.4706,1.54,11111222 
TCOON,ioos:station:TCOON:003:1,2019-05-10T16:24:00Z,26.8015,-97.4706,1.531,11111222 
TCOON,ioos:station:TCOON:003:1,2019-05-10T17:24:00Z,26.8015,-97.4706,1.513,11111222 
TCOON,ioos:station:TCOON:003:1,2019-05-10T18:24:00Z,26.8015,-97.4706,1.496,11111222 
TCOON,ioos:station:TCOON:003:1,2019-05-10T19:24:00Z,26.8015,-97.4706,1.506,11111222 
TCOON,ioos:station:TCOON:003:1,2019-05-10T20:24:00Z,26.8015,-97.4706,1.505,11111222 
TCOON,ioos:station:TCOON:003:1,2019-05-10T21:24:00Z,26.8015,-97.4706,1.489,11111222 
TCOON,ioos:station:TCOON:003:1,2019-05-10T22:24:00Z,26.8015,-97.4706,1.47,11111222 
TCOON,ioos:station:TCOON:003:1,2019-05-10T23:24:00Z,26.8015,-97.4706,1.465,11111222 
TCOON,ioos:station:TCOON:003:1,2019-05-11T00:24:00Z,26.8015,-97.4706,1.446,11111222 
TCOON,ioos:station:TCOON:003:1,2019-05-11T01:24:00Z,26.8015,-97.4706,1.471,11111222 
TCOON,ioos:station:TCOON:003:1,2019-05-11T02:24:00Z,26.8015,-97.4706,1.483,11111222 
TCOON,ioos:station:TCOON:003:1,2019-05-11T03:24:00Z,26.8015,-97.4706,1.469,11111222 
TCOON,ioos:station:TCOON:003:1,2019-05-11T04:24:00Z,26.8015,-97.4706,1.461,11111222 
TCOON,ioos:station:TCOON:003:1,2019-05-11T05:24:00Z,26.8015,-97.4706,1.446,11111222 
TCOON,ioos:station:TCOON:003:1,2019-05-11T06:24:00Z,26.8015,-97.4706,1.425,11111222 
TCOON,ioos:station:TCOON:003:1,2019-05-11T07:24:00Z,26.8015,-97.4706,1.414,11111222 
TCOON,ioos:station:TCOON:003:1,2019-05-11T08:24:00Z,26.8015,-97.4706,1.402,11111222 
TCOON,ioos:station:TCOON:003:1,2019-05-11T09:24:00Z,26.8015,-97.4706,1.391,11111222 
TCOON,ioos:station:TCOON:003:1,2019-05-11T10:24:00Z,26.8015,-97.4706,1.379,11111222 
TCOON,ioos:station:TCOON:003:1,2019-05-11T11:24:00Z,26.8015,-97.4706,1.369,11111222 
TCOON,ioos:station:TCOON:003:1,2019-05-11T12:24:00Z,26.8015,-97.4706,1.361,11111222 
TCOON,ioos:station:TCOON:003:1,2019-05-13T13:30:00Z,26.8015,-97.4706,1.416,11111222 
TCOON,ioos:station:TCOON:003:1,2019-05-13T14:24:00Z,26.8015,-97.4706,1.415,11111222 
TCOON,ioos:station:TCOON:003:1,2019-05-13T15:24:00Z,26.8015,-97.4706,1.416,11111222 
TCOON,ioos:station:TCOON:003:1,2019-05-13T16:24:00Z,26.8015,-97.4706,1.423,11111222 
TCOON,ioos:station:TCOON:003:1,2019-05-13T17:24:00Z,26.8015,-97.4706,1.432,11111222 
TCOON,ioos:station:TCOON:003:1,2019-05-13T18:24:00Z,26.8015,-97.4706,1.441,11111222 
TCOON,ioos:station:TCOON:003:1,2019-05-13T19:24:00Z,26.8015,-97.4706,1.448,11111222 
TCOON,ioos:station:TCOON:003:1,2019-05-13T20:24:00Z,26.8015,-97.4706,1.443,11111222 
TCOON,ioos:station:TCOON:003:1,2019-05-13T21:24:00Z,26.8015,-97.4706,1.429,11111222 
TCOON,ioos:station:TCOON:003:1,2019-05-13T22:24:00Z,26.8015,-97.4706,1.421,11111222 
TCOON,ioos:station:TCOON:003:1,2019-05-13T23:24:00Z,26.8015,-97.4706,1.421,11111222 
TCOON,ioos:station:TCOON:003:1,2019-05-14T00:24:00Z,26.8015,-97.4706,1.432,11111222 
TCOON,ioos:station:TCOON:003:1,2019-05-14T01:24:00Z,26.8015,-97.4706,1.432,11111222 
TCOON,ioos:station:TCOON:003:1,2019-05-14T02:24:00Z,26.8015,-97.4706,1.437,11111222 
TCOON,ioos:station:TCOON:003:1,2019-05-14T03:24:00Z,26.8015,-97.4706,1.45,11111222 
TCOON,ioos:station:TCOON:003:1,2019-05-14T04:24:00Z,26.8015,-97.4706,1.46,11111222 
TCOON,ioos:station:TCOON:003:1,2019-05-14T05:24:00Z,26.8015,-97.4706,1.463,11111222 
TCOON,ioos:station:TCOON:003:1,2019-05-14T06:24:00Z,26.8015,-97.4706,1.458,11111222 
TCOON,ioos:station:TCOON:003:1,2019-05-14T07:24:00Z,26.8015,-97.4706,1.454,11111222 
TCOON,ioos:station:TCOON:003:1,2019-05-14T08:24:00Z,26.8015,-97.4706,1.455,11111222 
TCOON,ioos:station:TCOON:003:1,2019-05-14T09:24:00Z,26.8015,-97.4706,1.452,11111222 
TCOON,ioos:station:TCOON:003:1,2019-05-14T10:24:00Z,26.8015,-97.4706,1.448,11111222 
TCOON,ioos:station:TCOON:003:1,2019-05-14T11:24:00Z,26.8015,-97.4706,1.443,11111222 
TCOON,ioos:station:TCOON:003:1,2019-05-14T12:24:00Z,26.8015,-97.4706,1.439,11111222 
TCOON,ioos:station:TCOON:003:1,2019-05-14T13:24:00Z,26.8015,-97.4706,1.426,11111222 
TCOON,ioos:station:TCOON:003:1,2019-05-14T14:24:00Z,26.8015,-97.4706,1.43,11111222 
TCOON,ioos:station:TCOON:003:1,2019-05-14T15:24:00Z,26.8015,-97.4706,1.433,11111222 
TCOON,ioos:station:TCOON:003:1,2019-05-14T16:24:00Z,26.8015,-97.4706,1.438,11111222 